Weather in Rassyl'naya

Russia / Oryol Oblast     52°42′44″N   35°49′05″E
temp.,
°C
wind,
m/s
gust,
m/s
humid.,
%
clouds,
%
prec.,
mm/h
press.,
hPa
HPBL,
m
21 january, fri
fri2100:00−3ssw71495100 0.5 1005602
03:00−4s61295100 1.6 1003483
06:00−4s61296100 1.1 1001459
09:00−4ssw51095100 1.6 1000375
12:00−4sw5992100 0.1 1000552
15:00−5ssw61191100 0.1 1000577
18:00−5s71492100 0.1 999613
21:00−4ssw71495100 0.5 998733
22 january, sat
sat2200:00−4ssw71395100 0.6 999598
03:00−3ssw61295100 1.2 1000556
06:00−4ssw5109599 0.3 1001435
09:00−5ssw5109490 0.5 1004327
12:00−5ssw489488 0.1 1006387
15:00−4ssw4689100 0.1 1008449
18:00−5s2595100 0.1 1010192
21:00−7sse359796 0.2 101281
23 january, sun
sun2300:00−11sse229976 0.1 101530
03:00−15sse22100100 0.1 101711
06:00−17ese22100100 0.1 102010
09:00−17ese22100100 0.1 102312
12:00−10e229790 0.1 102577
15:00−9ne239614 0.1 102757
18:00−14nne359981 0.0 102952
21:00−16ne3410093 0.0 103254
24 january, mon
mon2400:00−16nne3710087 0.0 103490
03:00−16nne399975 0.0 1034108
06:00−15nne5129888 0.0 1034183
09:00−14nne4129773 0.0 1035209
12:00−11ne51293100 0.0 1035278
15:00−9nne5994100 0.0 1033290
18:00−11nne499565 0.0 1034189
21:00−13nne499761 0.0 1034136
25 january, tue
tue2500:00−16nne249858 0.0 103447
03:00−16nne349866 0.0 103355
06:00−19nne2210073 0.0 103226
09:00−21ne2210088 0.0 103220
12:00−13ene119319 0.0 103076
15:00−11ne11945 0.0 102810
18:00−17se019936 0.0 10279
21:00−19s1110067 0.0 10269